Home   Weather   Almaty   Past weeks

Flag for Kazakhstan Past Weather in Almaty, Kazakhstan — Yesterday and Last 2 Weeks

Now
52 °F

Fog.


Feels Like: 51 °F
Forecast: 44 / 68 °F
Wind: 3 mph from South

Location: Almaty Airport

Current Time: Apr 24, 2017 at 2:16:50 am

Latest Report: Apr 24, 2017 at 1:30 am


Visibility: 3 mi

Pressure: 30.18 "Hg (27.44 "Hg at 790m altitude)

Humidity: 77%

Dew Point: 45 °F

Location of AlmatyLocation

Past Weather in Almaty — Graph

°F

Almaty Temperature Yesterday

Maximum temperature yesterday: 70 °F (at 3:00 pm)
Minimum temperature yesterday: 50 °F (at 6:00 am)
Average temperature yesterday: 60 °F

High & Low Weather Summary for the Past Weeks

 TemperatureHumidityPressure
High77 °F (Apr 20, 3:00 pm)94% (Apr 21, 7:30 pm)30.24 "Hg (Apr 21, 7:30 pm)
Low45 °F (Apr 20, 4:00 am)24% (Apr 20, 5:00 pm)29.83 "Hg (Apr 20, 3:30 pm)
Average61 °F62%30.03 "Hg
* Reported Apr 19 1:00 pm — Apr 24 1:00 am, Almaty, Weather by CustomWeather, © 2017

Note: Actual official high and low records may vary slightly from our data, if they occured in-between our weather recording intervals... More about our weather records

Advertising

Almaty Weather History for the Previous 24 Hours

Scroll right to see more
 ConditionsComfort  
Time TempWeatherWind HumidityBarometerVisibility
1:00 am
Mon, Apr 24
50 °FFog.3 mph82%30.18 "Hg3 mi
12:30 am52 °FFog.1 mph77%30.18 "Hg3 mi
12:00 am52 °FFog.No wind77%30.18 "Hg3 mi
11:30 pm
Sun, Apr 23
54 °FFog.3 mph72%30.21 "Hg3 mi
11:00 pm55 °FPassing clouds.3 mph67%30.21 "Hg3 mi
10:30 pm55 °FPassing clouds.8 mph67%30.24 "Hg3 mi
10:00 pm55 °FPassing clouds.1 mph67%30.24 "Hg3 mi
9:30 pm57 °FPassing clouds.3 mph63%30.24 "Hg3 mi
9:00 pm59 °FPassing clouds.3 mph59%30.24 "Hg3 mi
8:30 pm61 °FPassing clouds.6 mph52%30.24 "Hg3 mi
8:00 pm63 °FPassing clouds.6 mph49%30.21 "Hg3 mi
7:00 pm64 °FBroken clouds.8 mph49%30.21 "HgN/A
6:00 pm68 °FScattered clouds.6 mph46%30.21 "HgN/A
5:30 pm68 °FScattered clouds.6 mph46%30.18 "HgN/A
5:00 pm70 °FScattered clouds.6 mph46%30.18 "HgN/A
4:30 pm70 °FScattered clouds.8 mph43%30.18 "HgN/A
4:00 pm68 °FScattered clouds.6 mph43%30.18 "HgN/A
3:30 pm68 °FScattered clouds.6 mph49%30.18 "HgN/A
3:00 pm70 °FScattered clouds.8 mph50%30.18 "HgN/A
2:30 pm68 °FScattered clouds.6 mph46%30.18 "HgN/A
1:30 pm68 °FScattered clouds.8 mph46%30.21 "HgN/A
1:00 pm68 °FScattered clouds.6 mph49%30.21 "HgN/A
12:30 pm66 °FPassing clouds.6 mph56%30.21 "HgN/A
12:00 pm64 °FPassing clouds.6 mph56%30.21 "HgN/A
11:30 am64 °FPassing clouds.3 mph56%30.24 "HgN/A
11:00 am64 °FPassing clouds.6 mph52%30.24 "HgN/A
10:30 am63 °FPassing clouds.3 mph59%30.24 "HgN/A
10:00 am63 °FPassing clouds.6 mph59%30.24 "HgN/A
9:30 am63 °FPassing clouds.6 mph56%30.24 "HgN/A
9:00 am61 °FPassing clouds.3 mph59%30.24 "HgN/A
8:30 am61 °FScattered clouds.1 mph55%30.24 "HgN/A
8:00 am57 °FScattered clouds.3 mph72%30.24 "HgN/A
7:30 am52 °FScattered clouds.3 mph82%30.24 "HgN/A
7:00 am52 °FBroken clouds.No wind82%30.24 "HgN/A
6:30 am52 °FBroken clouds.3 mph82%30.24 "HgN/A
6:00 am50 °FBroken clouds.1 mph82%30.24 "HgN/A
5:30 am52 °FPartly cloudy.3 mph77%30.24 "HgN/A
5:00 am52 °FPartly cloudy.3 mph82%30.24 "HgN/A
4:30 am52 °FPartly cloudy.3 mph82%30.21 "HgN/A
4:00 am54 °FPartly cloudy.3 mph77%30.21 "HgN/A
3:30 am54 °FMostly cloudy.3 mph77%30.21 "HgN/A
3:00 am55 °FMostly cloudy.3 mph72%30.21 "HgN/A
2:30 am54 °FMostly cloudy.3 mph77%30.21 "HgN/A
2:00 am54 °FMostly cloudy.1 mph77%30.21 "HgN/A
Weather by CustomWeather, © 2017

See weather overviewHow to use our weather pages